TimeMDT,TemperatureF,Dew PointF,Humidity,Sea Level PressureIn,VisibilityMPH,Wind Direction,Wind SpeedMPH,Gust SpeedMPH,PrecipitationIn,Events,Conditions,WindDirDegrees,DateUTC
12:15 AM,66.2,64.4,94,29.93,10.0,South,4.6,-,N/A,,Overcast,180,2013-09-28 06:15:00
12:35 AM,68.0,66.2,94,29.95,10.0,NW,12.7,-,N/A,,Mostly Cloudy,320,2013-09-28 06:35:00
12:55 AM,66.2,59.0,78,29.96,10.0,NW,17.3,23.0,N/A,,Overcast,310,2013-09-28 06:55:00
1:15 AM,64.4,57.2,77,29.97,10.0,NNW,18.4,24.2,N/A,,Overcast,330,2013-09-28 07:15:00
1:35 AM,62.6,55.4,77,29.99,10.0,North,10.4,-,N/A,,Overcast,350,2013-09-28 07:35:00
1:55 AM,62.6,51.8,68,29.99,10.0,North,13.8,-,N/A,,Overcast,350,2013-09-28 07:55:00
2:15 AM,62.6,53.6,72,30.00,10.0,North,9.2,-,N/A,,Overcast,350,2013-09-28 08:15:00
2:35 AM,60.8,53.6,77,29.99,10.0,North,10.4,-,N/A,Rain,Light Rain,350,2013-09-28 08:35:00
2:55 AM,60.8,53.6,77,30.00,10.0,North,8.1,-,N/A,,Overcast,360,2013-09-28 08:55:00
3:15 AM,62.6,46.4,55,30.00,10.0,NNW,13.8,-,N/A,,Overcast,330,2013-09-28 09:15:00
3:35 AM,62.6,42.8,48,30.00,10.0,NNW,12.7,-,N/A,,Overcast,330,2013-09-28 09:35:00
3:55 AM,60.8,41.0,48,30.01,10.0,NNW,13.8,19.6,N/A,,Overcast,330,2013-09-28 09:55:00
4:15 AM,60.8,37.4,42,30.02,10.0,NNW,16.1,-,N/A,,Overcast,330,2013-09-28 10:15:00
4:35 AM,60.8,35.6,39,30.02,10.0,NW,17.3,23.0,N/A,,Overcast,320,2013-09-28 10:35:00
4:55 AM,60.8,35.6,39,30.03,10.0,NW,17.3,23.0,N/A,,Overcast,320,2013-09-28 10:55:00
5:50 AM,59.0,35.6,42,30.05,10.0,NW,17.3,23.0,N/A,,Overcast,310,2013-09-28 11:50:00
6:50 AM,55.4,35.6,47,30.08,10.0,NW,13.8,-,N/A,,Scattered Clouds,310,2013-09-28 12:50:00
7:50 AM,59.0,35.6,42,30.09,10.0,NW,19.6,23.0,N/A,,Partly Cloudy,320,2013-09-28 13:50:00
8:50 AM,60.8,41.0,48,30.12,10.0,North,20.7,28.8,N/A,,Clear,350,2013-09-28 14:50:00
9:50 AM,64.4,46.4,52,30.16,10.0,NNE,20.7,25.3,N/A,,Clear,20,2013-09-28 15:50:00
10:50 AM,66.2,41.0,40,30.19,10.0,NNE,17.3,-,N/A,,Clear,20,2013-09-28 16:50:00
11:50 AM,68.0,44.6,43,30.20,10.0,NE,13.8,19.6,N/A,,Clear,40,2013-09-28 17:50:00
12:50 PM,69.8,42.8,38,30.20,10.0,NNE,11.5,18.4,N/A,,Clear,30,2013-09-28 18:50:00
1:50 PM,69.8,42.8,38,30.18,10.0,NE,11.5,-,N/A,,Clear,40,2013-09-28 19:50:00
2:50 PM,71.6,42.8,35,30.15,10.0,NNE,10.4,-,N/A,,Clear,20,2013-09-28 20:50:00
3:50 PM,73.4,41.0,31,30.14,10.0,North,9.2,-,N/A,,Clear,10,2013-09-28 21:50:00
4:50 PM,73.4,39.2,29,30.13,10.0,North,9.2,-,N/A,,Clear,360,2013-09-28 22:50:00
5:50 PM,71.6,39.2,31,30.14,10.0,NNE,8.1,-,N/A,,Clear,20,2013-09-28 23:50:00
6:15 PM,71.6,39.2,31,30.15,10.0,NNE,5.8,-,N/A,,Clear,30,2013-09-29 00:15:00
6:35 PM,68.0,39.2,35,30.15,10.0,NNE,5.8,-,N/A,,Clear,30,2013-09-29 00:35:00
6:55 PM,66.2,39.2,37,30.16,10.0,Calm,Calm,-,N/A,,Clear,0,2013-09-29 00:55:00
7:15 PM,64.4,39.2,40,30.16,10.0,Calm,Calm,-,N/A,,Clear,0,2013-09-29 01:15:00
7:35 PM,62.6,39.2,42,30.17,10.0,Calm,Calm,-,N/A,,Clear,0,2013-09-29 01:35:00
7:55 PM,62.6,39.2,42,30.18,10.0,Calm,Calm,-,N/A,,Clear,0,2013-09-29 01:55:00
8:15 PM,62.6,41.0,45,30.19,10.0,Calm,Calm,-,N/A,,Clear,0,2013-09-29 02:15:00
8:35 PM,60.8,41.0,48,30.20,10.0,Calm,Calm,-,N/A,,Clear,0,2013-09-29 02:35:00
8:55 PM,59.0,41.0,51,30.21,10.0,Calm,Calm,-,N/A,,Clear,0,2013-09-29 02:55:00
9:15 PM,59.0,41.0,51,30.22,10.0,Calm,Calm,-,N/A,,Clear,0,2013-09-29 03:15:00
9:35 PM,57.2,41.0,55,30.23,10.0,Calm,Calm,-,N/A,,Clear,0,2013-09-29 03:35:00
9:55 PM,57.2,41.0,55,30.24,10.0,Calm,Calm,-,N/A,,Clear,0,2013-09-29 03:55:00
10:15 PM,57.2,41.0,55,30.24,10.0,Calm,Calm,-,N/A,,Clear,0,2013-09-29 04:15:00
10:35 PM,57.2,41.0,55,30.24,10.0,ENE,4.6,-,N/A,,Clear,60,2013-09-29 04:35:00
10:55 PM,55.4,41.0,58,30.24,10.0,Calm,Calm,-,N/A,,Clear,0,2013-09-29 04:55:00
11:15 PM,57.2,41.0,55,30.24,10.0,Calm,Calm,-,N/A,,Clear,0,2013-09-29 05:15:00
11:35 PM,55.4,41.0,58,30.24,10.0,Calm,Calm,-,N/A,,Clear,0,2013-09-29 05:35:00
11:55 PM,55.4,41.0,58,30.24,10.0,Calm,Calm,-,N/A,,Clear,0,2013-09-29 05:55:00